Showing default

LUCH (OLYMP) 2, 55841

Orbit data source: Space-Track

LUCH (OLYMP) 2, 55841 is a payload satellite owned by FSB (CIS) in GEO that was launched on Sun, 12 Mar 2023 UTC via a PROTON-M/BRIZ-M launch vehicle from the Tyuratam Missile And Space Complex (TTMTR). Payloads include a variety of satellites, spacecraft, and rockets equipped with specific instruments for various scientific and technological missions. These include communications satellites like Starlink; space stations such as the ISS; scientific satellites like the Hubble; Earth observation satellites from companies like Planet Labs, Umbra, and HawkEye 360; GPS; miniature CubeSats for education and research; and military/defense satellites.

Not visible in the next 10 days
LUCH (OLYMP) 2 details
Identifier
55841, 2023-031A
Orbit
GEO
Last TLE update8 hours ago
Origin
Flag of CISFSB (CIS)
ManufacturerResehetnev ISS
MissionOperational Defense Com/Sigint
Bus & MotorEKSPRESS-2000, Unknown motor
Mass1,930 kg wet, ~1,800 kg dry
Launch date (UTC)
2023-03-12 (2 years ago)
Launch vehicle
PROTON-M/BRIZ-M
Launch site
Tyuratam Missile And Space Complex (TTMTR)
Object type
Payload
Rocket body
Debris
Shape & HBRCyl + 2 Pan + 2 Dish, 16 m
Radar Cross Section40.926 m², Large (>1 m²)

Expand to show TLE details & history

TLE from 8 hours ago
0 LUCH (OLYMP) 2
1 55841U 23031A   24325.93394800 -.00000009  00000-0  00000-0 0  9994
2 55841   0.0150 311.2838 0001573 308.2558 136.2294  1.00269805  6198
Epoch: 2024-11-20T22:24Z
Definitive object data (Epoch: 2024-11-20T22:24:53.107Z)
Latitude0.03437°
Longitude-0.87889°
Altitude35,791.452 km
Speed3.074 km/s
True Right ascension02h 23m 03s
True Declination0° 02' 04"
Sunlit
Object was in daylight at TLE epoch
Visualization TLE readout
Latitude-0.01542°
Longitude119.86653°
Altitude35,788.112 km
Speed3.075 km/s
Apparent Right ascension10h 51m 02s
Apparent Declination-5° 20' 44"
Sunlit
Object is in daylight
Visualization observer readout
Local Sidereal Time03:29:12
Azimuth80.756° E
Elevation-19.067°
Doppler factor1
Orbital elements
Apogee altitude35,794.853 km
Perigee altitude35,781.588 km
Semi-major axis42,166.357 km
Eccentricity0.0001573
Inclination0.015°
RAAN311.2838°
Arg. of periapsis308.2558°
True anomaly136.24187°
Mean anomaly136.2294°
Eccentric anomaly136.23563°
Mean motion0.25067 °/min
BSTARUnknown
Orbital period1436.18 mins
Loading historical data...
55841 neighbors
Authenticating...
Loading maneuver chart data...
Loading historical data...
Loading historical data...
Loading historical data...
Loading historical data...
Loading historical data...
Loading historical data...
Loading historical data...
Other satellites on launch #31 in the year 2023 (2023-03-12 UTC)

LUCH (OLYMP) 2 Visibility forecast

Observer location: undefined°, undefined

LUCH (OLYMP) 2 is not visible in the next 10 days
Span
Click to sort rows by Start time (UTC) header in descending order
Start Az.
Max El. time (UTC)
Max El. Az.
Max El.
End time (UTC)
End Az.
|